Year,Month,Day,Hour,Minute,Value (Times are PST for temperature in C)
2011,07,11,00,00,12.80
2011,07,11,00,01,12.80
2011,07,11,00,02,12.70
2011,07,11,00,03,12.70
2011,07,11,00,04,12.70
2011,07,11,00,05,12.70
2011,07,11,00,06,12.70
2011,07,11,00,07,12.70
2011,07,11,00,08,12.70
2011,07,11,00,09,12.70
2011,07,11,00,10,12.70
2011,07,11,00,11,12.70
2011,07,11,00,12,12.70
2011,07,11,00,13,12.70
2011,07,11,00,14,12.70
2011,07,11,00,15,12.70
2011,07,11,00,16,12.80
2011,07,11,00,17,12.80
2011,07,11,00,18,12.80
2011,07,11,00,19,12.70
2011,07,11,00,20,12.70
2011,07,11,00,21,12.70
2011,07,11,00,22,12.70
2011,07,11,00,23,12.70
2011,07,11,00,24,12.70
2011,07,11,00,25,12.70
2011,07,11,00,26,12.70
2011,07,11,00,27,12.60
2011,07,11,00,28,12.60
2011,07,11,00,29,12.60
2011,07,11,00,30,12.60
2011,07,11,00,31,12.60
2011,07,11,00,32,12.60
2011,07,11,00,33,12.60
2011,07,11,00,34,12.60
2011,07,11,00,35,12.60
2011,07,11,00,36,12.50
2011,07,11,00,37,12.50
2011,07,11,00,38,12.50
2011,07,11,00,39,12.50
2011,07,11,00,40,12.50
2011,07,11,00,41,12.50
2011,07,11,00,42,12.40
2011,07,11,00,43,12.40
2011,07,11,00,44,12.40
2011,07,11,00,45,12.40
2011,07,11,00,46,12.30
2011,07,11,00,47,12.30
2011,07,11,00,48,12.30
2011,07,11,00,49,12.30
2011,07,11,00,50,12.30
2011,07,11,00,51,12.20
2011,07,11,00,52,12.20
2011,07,11,00,53,12.20
2011,07,11,00,54,12.20
2011,07,11,00,55,12.20
2011,07,11,00,56,12.20
2011,07,11,00,57,12.20
2011,07,11,00,58,12.10
2011,07,11,00,59,12.10
2011,07,11,01,00,12.10
2011,07,11,01,01,12.10
2011,07,11,01,02,12.10
2011,07,11,01,03,12.10
2011,07,11,01,04,12.10
2011,07,11,01,05,12.10
2011,07,11,01,06,12.10
2011,07,11,01,07,12.10
2011,07,11,01,08,12.10
2011,07,11,01,09,12.10
2011,07,11,01,10,12.10
2011,07,11,01,11,12.10
2011,07,11,01,12,12.10
2011,07,11,01,13,12.10
2011,07,11,01,14,12.10
2011,07,11,01,15,12.10
2011,07,11,01,16,12.10
2011,07,11,01,17,12.10
2011,07,11,01,18,12.10
2011,07,11,01,19,12.10
2011,07,11,01,20,12.00
2011,07,11,01,21,12.00
2011,07,11,01,22,12.00
2011,07,11,01,23,12.00
2011,07,11,01,24,12.00
2011,07,11,01,25,12.00
2011,07,11,01,26,12.00
2011,07,11,01,27,12.00
2011,07,11,01,28,12.00
2011,07,11,01,29,12.00
2011,07,11,01,30,12.00
2011,07,11,01,31,12.00
2011,07,11,01,32,12.00
2011,07,11,01,33,12.00
2011,07,11,01,34,12.00
2011,07,11,01,35,12.00
2011,07,11,01,36,12.10
2011,07,11,01,37,12.10
2011,07,11,01,38,12.10
2011,07,11,01,39,12.10
2011,07,11,01,40,12.10
2011,07,11,01,41,12.10
2011,07,11,01,42,12.00
2011,07,11,01,43,12.00
2011,07,11,01,44,12.00
2011,07,11,01,45,11.90
2011,07,11,01,46,11.90
2011,07,11,01,47,11.90
2011,07,11,01,48,11.90
2011,07,11,01,49,11.90
2011,07,11,01,50,11.90
2011,07,11,01,51,11.90
2011,07,11,01,52,12.00
2011,07,11,01,53,12.00
2011,07,11,01,54,12.00
2011,07,11,01,55,12.00
2011,07,11,01,56,12.00
2011,07,11,01,57,12.00
2011,07,11,01,58,12.00
2011,07,11,01,59,12.00
2011,07,11,02,00,12.00
2011,07,11,02,01,12.00
2011,07,11,02,02,12.00
2011,07,11,02,03,12.00
2011,07,11,02,04,12.00
2011,07,11,02,05,11.90
2011,07,11,02,06,11.90
2011,07,11,02,07,11.90
2011,07,11,02,08,11.90
2011,07,11,02,09,11.90
2011,07,11,02,10,11.90
2011,07,11,02,11,11.90
2011,07,11,02,12,11.90
2011,07,11,02,13,11.90
2011,07,11,02,14,11.90
2011,07,11,02,15,11.90
2011,07,11,02,16,11.90
2011,07,11,02,17,11.90
2011,07,11,02,18,11.90
2011,07,11,02,19,11.90
2011,07,11,02,20,11.90
2011,07,11,02,21,11.90
2011,07,11,02,22,11.90
2011,07,11,02,23,11.90
2011,07,11,02,24,11.90
2011,07,11,02,25,11.90
2011,07,11,02,26,11.90
2011,07,11,02,27,11.80
2011,07,11,02,28,11.80
2011,07,11,02,29,11.80
2011,07,11,02,30,11.80
2011,07,11,02,31,11.80
2011,07,11,02,32,11.80
2011,07,11,02,33,11.80
2011,07,11,02,34,11.80
2011,07,11,02,35,11.80
2011,07,11,02,36,11.80
2011,07,11,02,37,11.80
2011,07,11,02,38,11.80
2011,07,11,02,39,11.80
2011,07,11,02,40,11.80
2011,07,11,02,41,11.80
2011,07,11,02,42,11.80
2011,07,11,02,43,11.80
2011,07,11,02,44,11.70
2011,07,11,02,45,11.70
2011,07,11,02,46,11.70
2011,07,11,02,47,11.70
2011,07,11,02,48,11.70
2011,07,11,02,49,11.70
2011,07,11,02,50,11.70
2011,07,11,02,51,11.70
2011,07,11,02,52,11.70
2011,07,11,02,53,11.70
2011,07,11,02,54,11.70
2011,07,11,02,55,11.70
2011,07,11,02,56,11.70
2011,07,11,02,57,11.70
2011,07,11,02,58,11.70
2011,07,11,02,59,11.70
2011,07,11,03,00,11.70
2011,07,11,03,01,11.70
2011,07,11,03,02,11.70
2011,07,11,03,06,11.70
2011,07,11,03,07,11.60
2011,07,11,03,08,11.60
2011,07,11,03,09,11.60
2011,07,11,03,10,11.60
2011,07,11,03,11,11.60
2011,07,11,03,12,11.60
2011,07,11,03,13,11.60
2011,07,11,03,14,11.60
2011,07,11,03,15,11.60
2011,07,11,03,16,11.60
2011,07,11,03,17,11.60
2011,07,11,03,18,11.60
2011,07,11,03,19,11.60
2011,07,11,03,20,11.60
2011,07,11,03,21,11.60
2011,07,11,03,22,11.60
2011,07,11,03,23,11.60
2011,07,11,03,24,11.60
2011,07,11,03,25,11.60
2011,07,11,03,26,11.60
2011,07,11,03,27,11.60
2011,07,11,03,28,11.60
2011,07,11,03,29,11.60
2011,07,11,03,30,11.60
2011,07,11,03,31,11.60
2011,07,11,03,32,11.60
2011,07,11,03,33,11.60
2011,07,11,03,34,11.60
2011,07,11,03,35,11.60
2011,07,11,03,36,11.60
2011,07,11,03,37,11.60
2011,07,11,03,38,11.60
2011,07,11,03,39,11.60
2011,07,11,03,40,11.60
2011,07,11,03,41,11.60
2011,07,11,03,42,11.60
2011,07,11,03,43,11.60
2011,07,11,03,44,11.60
2011,07,11,03,45,11.60
2011,07,11,03,46,11.60
2011,07,11,03,47,11.60
2011,07,11,03,48,11.60
2011,07,11,03,49,11.60
2011,07,11,03,50,11.60
2011,07,11,03,51,11.60
2011,07,11,03,52,11.60
2011,07,11,03,53,11.60
2011,07,11,03,54,11.60
2011,07,11,03,55,11.60
2011,07,11,03,56,11.60
2011,07,11,03,57,11.70
2011,07,11,03,58,11.70
2011,07,11,03,59,11.70
2011,07,11,04,00,11.70
2011,07,11,04,01,11.70
2011,07,11,04,02,11.70
2011,07,11,04,03,11.70
2011,07,11,04,04,11.70
2011,07,11,04,05,11.70
2011,07,11,04,06,11.70
2011,07,11,04,07,11.70
2011,07,11,04,08,11.80
2011,07,11,04,09,11.80
2011,07,11,04,10,11.80
2011,07,11,04,11,11.80
2011,07,11,04,12,11.80
2011,07,11,04,13,11.80
2011,07,11,04,14,11.80
2011,07,11,04,15,11.80
2011,07,11,04,16,11.80
2011,07,11,04,17,11.80
2011,07,11,04,18,11.80
2011,07,11,04,19,11.90
2011,07,11,04,20,11.90
2011,07,11,04,21,11.90
2011,07,11,04,22,11.90
2011,07,11,04,23,11.90
2011,07,11,04,24,11.90
2011,07,11,04,25,11.90
2011,07,11,04,26,12.00
2011,07,11,04,27,12.00
2011,07,11,04,28,12.00
2011,07,11,04,29,12.00
2011,07,11,04,30,12.00
2011,07,11,04,31,12.00
2011,07,11,04,32,12.00
2011,07,11,04,33,12.00
2011,07,11,04,34,12.00
2011,07,11,04,35,12.00
2011,07,11,04,36,12.10
2011,07,11,04,37,12.10
2011,07,11,04,38,12.10
2011,07,11,04,39,12.10
2011,07,11,04,40,12.10
2011,07,11,04,41,12.10
2011,07,11,04,42,12.20
2011,07,11,04,43,12.20
2011,07,11,04,44,12.20
2011,07,11,04,45,12.20
2011,07,11,04,46,12.20
2011,07,11,04,47,12.20
2011,07,11,04,48,12.20
2011,07,11,04,49,12.20
2011,07,11,04,50,12.20
2011,07,11,04,51,12.20
2011,07,11,04,52,12.20
2011,07,11,04,53,12.30
2011,07,11,04,54,12.30
2011,07,11,04,55,12.30
2011,07,11,04,56,12.30
2011,07,11,04,57,12.30
2011,07,11,04,58,12.30
2011,07,11,04,59,12.30
2011,07,11,05,00,12.30
2011,07,11,05,01,12.30
2011,07,11,05,02,12.30
2011,07,11,05,03,12.30
2011,07,11,05,04,12.30
2011,07,11,05,05,12.40
2011,07,11,05,06,12.40
2011,07,11,05,07,12.40
2011,07,11,05,08,12.40
2011,07,11,05,09,12.40
2011,07,11,05,10,12.40
2011,07,11,05,11,12.40
2011,07,11,05,12,12.40
2011,07,11,05,13,12.40
2011,07,11,05,14,12.40
2011,07,11,05,15,12.40
2011,07,11,05,16,12.40
2011,07,11,05,17,12.50
2011,07,11,05,18,12.50
2011,07,11,05,19,12.50
2011,07,11,05,20,12.50
2011,07,11,05,21,12.50
2011,07,11,05,22,12.50
2011,07,11,05,23,12.50
2011,07,11,05,24,12.50
2011,07,11,05,25,12.50
2011,07,11,05,26,12.50
2011,07,11,05,27,12.50
2011,07,11,05,28,12.50
2011,07,11,05,29,12.60
2011,07,11,05,30,12.60
2011,07,11,05,31,12.60
2011,07,11,05,32,12.60
2011,07,11,05,33,12.60
2011,07,11,05,34,12.60
2011,07,11,05,35,12.60
2011,07,11,05,36,12.60
2011,07,11,05,37,12.60
2011,07,11,05,38,12.60
2011,07,11,05,39,12.70
2011,07,11,05,40,12.70
2011,07,11,05,41,12.70
2011,07,11,05,42,12.70
2011,07,11,05,43,12.70
2011,07,11,05,44,12.70
2011,07,11,05,45,12.70
2011,07,11,05,46,12.70
2011,07,11,05,47,12.70
2011,07,11,05,48,12.80
2011,07,11,05,49,12.80
2011,07,11,05,50,12.80
2011,07,11,05,51,12.80
2011,07,11,05,52,12.80
2011,07,11,05,53,12.80
2011,07,11,05,54,12.80
2011,07,11,05,55,12.80
2011,07,11,05,56,12.80
2011,07,11,05,57,12.80
2011,07,11,05,58,12.80
2011,07,11,05,59,12.80
2011,07,11,06,00,12.80
2011,07,11,06,01,12.80
2011,07,11,06,02,12.80
2011,07,11,06,03,12.80
2011,07,11,06,04,12.80
2011,07,11,06,05,12.80
2011,07,11,06,06,12.80
2011,07,11,06,07,12.80
2011,07,11,06,08,12.80
2011,07,11,06,09,12.80
2011,07,11,06,10,12.80
2011,07,11,06,11,12.80
2011,07,11,06,12,12.90
2011,07,11,06,13,12.90
2011,07,11,06,14,12.90
2011,07,11,06,15,12.90
2011,07,11,06,16,12.90
2011,07,11,06,17,12.90
2011,07,11,06,18,12.90
2011,07,11,06,19,12.90
2011,07,11,06,20,12.90
2011,07,11,06,21,12.90
2011,07,11,06,22,12.90
2011,07,11,06,23,12.90
2011,07,11,06,24,12.90
2011,07,11,06,25,12.90
2011,07,11,06,26,12.90
2011,07,11,06,27,12.90
2011,07,11,06,28,12.90
2011,07,11,06,29,12.90
2011,07,11,06,30,13.00
2011,07,11,06,31,13.00
2011,07,11,06,32,13.00
2011,07,11,06,33,13.00
2011,07,11,06,34,13.00
2011,07,11,06,35,13.10
2011,07,11,06,36,13.10
2011,07,11,06,37,13.10
2011,07,11,06,38,13.10
2011,07,11,06,39,13.10
2011,07,11,06,40,13.10
2011,07,11,06,41,13.10
2011,07,11,06,42,13.10
2011,07,11,06,43,13.10
2011,07,11,06,44,13.10
2011,07,11,06,45,13.10
2011,07,11,06,46,13.10
2011,07,11,06,47,13.10
2011,07,11,06,48,13.10
2011,07,11,06,49,13.10
2011,07,11,06,50,13.10
2011,07,11,06,51,13.10
2011,07,11,06,52,13.10
2011,07,11,06,53,13.20
2011,07,11,06,54,13.20
2011,07,11,06,55,13.20
2011,07,11,06,56,13.20
2011,07,11,06,57,13.20
2011,07,11,06,58,13.20
2011,07,11,06,59,13.20
2011,07,11,07,00,13.20
2011,07,11,07,01,13.20
2011,07,11,07,02,13.20
2011,07,11,07,03,13.20
2011,07,11,07,04,13.20
2011,07,11,07,05,13.20
2011,07,11,07,06,13.20
2011,07,11,07,07,13.20
2011,07,11,07,08,13.20
2011,07,11,07,09,13.20
2011,07,11,07,10,13.20
2011,07,11,07,11,13.20
2011,07,11,07,12,13.20
2011,07,11,07,13,13.20
2011,07,11,07,14,13.20
2011,07,11,07,15,13.20
2011,07,11,07,16,13.20
2011,07,11,07,17,13.20
2011,07,11,07,18,13.20
2011,07,11,07,19,13.20
2011,07,11,07,20,13.20
2011,07,11,07,21,13.20
2011,07,11,07,22,13.20
2011,07,11,07,23,13.20
2011,07,11,07,24,13.20
2011,07,11,07,25,13.20
2011,07,11,07,26,13.20
2011,07,11,07,27,13.20
2011,07,11,07,28,13.20
2011,07,11,07,29,13.30
2011,07,11,07,30,13.30
2011,07,11,07,31,13.30
2011,07,11,07,32,13.30
2011,07,11,07,33,13.30
2011,07,11,07,34,13.30
2011,07,11,07,35,13.30
2011,07,11,07,36,13.30
2011,07,11,07,37,13.30
2011,07,11,07,38,13.30
2011,07,11,07,39,13.30
2011,07,11,07,40,13.30
2011,07,11,07,41,13.30
2011,07,11,07,42,13.30
2011,07,11,07,43,13.40
2011,07,11,07,44,13.40
2011,07,11,07,45,13.40
2011,07,11,07,46,13.40
2011,07,11,07,47,13.50
2011,07,11,07,48,13.50
2011,07,11,07,49,13.60
2011,07,11,07,50,13.60
2011,07,11,07,51,13.60
2011,07,11,07,52,13.70
2011,07,11,07,53,13.70
2011,07,11,07,54,13.80
2011,07,11,07,55,13.80
2011,07,11,07,56,13.80
2011,07,11,07,57,13.90
2011,07,11,07,58,13.90
2011,07,11,07,59,14.00
2011,07,11,08,00,14.00
2011,07,11,08,01,14.10
2011,07,11,08,02,14.10
2011,07,11,08,03,14.20
2011,07,11,08,04,14.20
2011,07,11,08,05,14.30
2011,07,11,08,06,14.30
2011,07,11,08,07,14.30
2011,07,11,08,08,14.30
2011,07,11,08,09,14.30
2011,07,11,08,10,14.40
2011,07,11,08,11,14.40
2011,07,11,08,12,14.50
2011,07,11,08,13,14.50
2011,07,11,08,14,14.60
2011,07,11,08,15,14.70
2011,07,11,08,16,14.80
2011,07,11,08,17,14.90
2011,07,11,08,18,15.00
2011,07,11,08,19,15.00
2011,07,11,08,20,15.00
2011,07,11,08,21,15.00
2011,07,11,08,22,15.10
2011,07,11,08,23,15.20
2011,07,11,08,24,15.20
2011,07,11,08,25,15.20
2011,07,11,08,26,15.20
2011,07,11,08,27,15.20
2011,07,11,08,28,15.20
2011,07,11,08,29,15.30
2011,07,11,08,30,15.30
2011,07,11,08,31,15.40
2011,07,11,08,32,15.40
2011,07,11,08,33,15.50
2011,07,11,08,34,15.60
2011,07,11,08,35,15.60
2011,07,11,08,36,15.70
2011,07,11,08,37,15.70
2011,07,11,08,38,15.80
2011,07,11,08,39,15.80
2011,07,11,08,40,15.90
2011,07,11,08,41,15.90
2011,07,11,08,42,16.00
2011,07,11,08,43,16.00
2011,07,11,08,44,16.10
2011,07,11,08,45,16.10
2011,07,11,08,46,16.10
2011,07,11,08,47,16.10
2011,07,11,08,48,16.10
2011,07,11,08,49,16.10
2011,07,11,08,50,16.10
2011,07,11,08,51,16.20
2011,07,11,08,52,16.20
2011,07,11,08,53,16.20
2011,07,11,08,54,16.30
2011,07,11,08,55,16.30
2011,07,11,08,56,16.30
2011,07,11,08,57,16.40
2011,07,11,08,58,16.40
2011,07,11,08,59,16.50
2011,07,11,09,00,16.50
2011,07,11,09,01,16.60
2011,07,11,09,02,16.70
2011,07,11,09,03,16.70
2011,07,11,09,04,16.80
2011,07,11,09,05,16.80
2011,07,11,09,06,16.80
2011,07,11,09,07,16.90
2011,07,11,09,08,16.90
2011,07,11,09,09,16.90
2011,07,11,09,10,17.00
2011,07,11,09,11,17.00
2011,07,11,09,12,17.10
2011,07,11,09,13,17.10
2011,07,11,09,14,17.20
2011,07,11,09,15,17.20
2011,07,11,09,16,17.30
2011,07,11,09,17,17.30
2011,07,11,09,18,17.40
2011,07,11,09,19,17.40
2011,07,11,09,20,17.40
2011,07,11,09,21,17.50
2011,07,11,09,22,17.50
2011,07,11,09,23,17.60
2011,07,11,09,24,17.70
2011,07,11,09,25,17.80
2011,07,11,09,26,17.90
2011,07,11,09,27,18.00
2011,07,11,09,28,18.10
2011,07,11,09,29,18.20
2011,07,11,09,30,18.20
2011,07,11,09,31,18.20
2011,07,11,09,32,18.20
2011,07,11,09,33,18.10
2011,07,11,09,34,18.10
2011,07,11,09,35,18.00
2011,07,11,09,36,17.90
2011,07,11,09,37,17.80
2011,07,11,09,38,17.80
2011,07,11,09,39,17.80
2011,07,11,09,40,17.80
2011,07,11,09,41,17.90
2011,07,11,09,42,17.90
2011,07,11,09,43,17.90
2011,07,11,09,44,17.80
2011,07,11,09,45,17.80
2011,07,11,09,46,17.80
2011,07,11,09,47,17.80
2011,07,11,09,48,17.80
2011,07,11,09,49,17.80
2011,07,11,09,50,17.80
2011,07,11,09,51,17.80
2011,07,11,09,52,17.90
2011,07,11,09,53,17.90
2011,07,11,09,54,17.90
2011,07,11,09,55,18.00
2011,07,11,09,56,18.00
2011,07,11,09,57,18.10
2011,07,11,09,58,18.10
2011,07,11,09,59,18.20
2011,07,11,10,00,18.10
2011,07,11,10,01,18.10
2011,07,11,10,02,18.00
2011,07,11,10,03,17.90
2011,07,11,10,04,17.90
2011,07,11,10,05,17.90
2011,07,11,10,06,17.90
2011,07,11,10,07,17.90
2011,07,11,10,08,17.90
2011,07,11,10,09,18.00
2011,07,11,10,10,18.00
2011,07,11,10,11,18.00
2011,07,11,10,12,18.10
2011,07,11,10,13,18.10
2011,07,11,10,14,18.20
2011,07,11,10,15,18.20
2011,07,11,10,16,18.30
2011,07,11,10,17,18.30
2011,07,11,10,18,18.30
2011,07,11,10,19,18.30
2011,07,11,10,20,18.30
2011,07,11,10,21,18.30
2011,07,11,10,22,18.30
2011,07,11,10,23,18.20
2011,07,11,10,24,18.10
2011,07,11,10,25,18.10
2011,07,11,10,26,18.00
2011,07,11,10,27,17.90
2011,07,11,10,28,17.90
2011,07,11,10,29,17.80
2011,07,11,10,30,17.80
2011,07,11,10,31,17.70
2011,07,11,10,32,17.60
2011,07,11,10,33,17.60
2011,07,11,10,34,17.50
2011,07,11,10,35,17.50
2011,07,11,10,36,17.40
2011,07,11,10,37,17.40
2011,07,11,10,38,17.40
2011,07,11,10,39,17.40
2011,07,11,10,40,17.40
2011,07,11,10,41,17.40
2011,07,11,10,42,17.40
2011,07,11,10,43,17.40
2011,07,11,10,44,17.40
2011,07,11,10,45,17.40
2011,07,11,10,46,17.40
2011,07,11,10,47,17.40
2011,07,11,10,48,17.40
2011,07,11,10,49,17.40
2011,07,11,10,50,17.50
2011,07,11,10,51,17.60
2011,07,11,10,52,17.60
2011,07,11,10,53,17.70
2011,07,11,10,54,17.70
2011,07,11,10,55,17.80
2011,07,11,10,56,17.90
2011,07,11,10,57,18.00
2011,07,11,10,58,18.10
2011,07,11,10,59,18.10
2011,07,11,11,00,18.20
2011,07,11,11,01,18.20
2011,07,11,11,02,18.20
2011,07,11,11,03,18.20
2011,07,11,11,04,18.20
2011,07,11,11,05,18.20
2011,07,11,11,06,18.20
2011,07,11,11,07,18.30
2011,07,11,11,08,18.30
2011,07,11,11,09,18.40
2011,07,11,11,10,18.40
2011,07,11,11,11,18.40
2011,07,11,11,12,18.30
2011,07,11,11,13,18.40
2011,07,11,11,14,18.40
2011,07,11,11,15,18.40
2011,07,11,11,16,18.40
2011,07,11,11,17,18.30
2011,07,11,11,18,18.40
2011,07,11,11,19,18.40
2011,07,11,11,20,18.40
2011,07,11,11,21,18.30
2011,07,11,11,22,18.30
2011,07,11,11,23,18.30
2011,07,11,11,24,18.40
2011,07,11,11,25,18.40
2011,07,11,11,26,18.50
2011,07,11,11,27,18.60
2011,07,11,11,28,18.60
2011,07,11,11,29,18.70
2011,07,11,11,30,18.80
2011,07,11,11,31,18.80
2011,07,11,11,32,18.90
2011,07,11,11,33,18.90
2011,07,11,11,34,19.00
2011,07,11,11,35,19.00
2011,07,11,11,36,19.10
2011,07,11,11,37,19.10
2011,07,11,11,38,19.10
2011,07,11,11,39,19.10
2011,07,11,11,40,19.00
2011,07,11,11,41,19.00
2011,07,11,11,42,18.90
2011,07,11,11,43,18.90
2011,07,11,11,44,18.90
2011,07,11,11,45,18.90
2011,07,11,11,46,18.90
2011,07,11,11,47,18.90
2011,07,11,11,48,18.90
2011,07,11,11,49,19.00
2011,07,11,11,50,19.00
2011,07,11,11,51,19.10
2011,07,11,11,52,19.10
2011,07,11,11,53,19.20
2011,07,11,11,54,19.20
2011,07,11,11,55,19.30
2011,07,11,11,56,19.30
2011,07,11,11,57,19.40
2011,07,11,11,58,19.40
2011,07,11,11,59,19.50
2011,07,11,12,00,19.50
2011,07,11,12,01,19.50
2011,07,11,12,02,19.50
2011,07,11,12,03,19.50
2011,07,11,12,04,19.50
2011,07,11,12,05,19.60
2011,07,11,12,06,19.60
2011,07,11,12,07,19.60
2011,07,11,12,08,19.60
2011,07,11,12,09,19.60
2011,07,11,12,10,19.60
2011,07,11,12,11,19.60
2011,07,11,12,12,19.60
2011,07,11,12,13,19.60
2011,07,11,12,14,19.50
2011,07,11,12,15,19.50
2011,07,11,12,16,19.50
2011,07,11,12,17,19.50
2011,07,11,12,18,19.60
2011,07,11,12,19,19.60
2011,07,11,12,20,19.60
2011,07,11,12,21,19.70
2011,07,11,12,22,19.70
2011,07,11,12,23,19.80
2011,07,11,12,24,19.80
2011,07,11,12,25,19.90
2011,07,11,12,26,19.90
2011,07,11,12,27,20.00
2011,07,11,12,28,20.10
2011,07,11,12,29,20.20
2011,07,11,12,30,20.30
2011,07,11,12,31,20.30
2011,07,11,12,32,20.40
2011,07,11,12,33,20.40
2011,07,11,12,34,20.40
2011,07,11,12,35,20.40
2011,07,11,12,36,20.40
2011,07,11,12,37,20.50
2011,07,11,12,38,20.60
2011,07,11,12,39,20.60
2011,07,11,12,40,20.70
2011,07,11,12,41,20.80
2011,07,11,12,42,20.80
2011,07,11,12,43,20.80
2011,07,11,12,44,20.90
2011,07,11,12,45,20.90
2011,07,11,12,46,20.90
2011,07,11,12,47,20.90
2011,07,11,12,48,20.90
2011,07,11,12,49,20.80
2011,07,11,12,50,20.80
2011,07,11,12,51,20.80
2011,07,11,12,52,20.70
2011,07,11,12,53,20.60
2011,07,11,12,54,20.60
2011,07,11,12,55,20.60
2011,07,11,12,56,20.60
2011,07,11,12,57,20.60
2011,07,11,12,58,20.60
2011,07,11,12,59,20.50
2011,07,11,13,00,20.40
2011,07,11,13,01,20.20
2011,07,11,13,02,20.00
2011,07,11,13,03,19.90
2011,07,11,13,04,19.80
2011,07,11,13,05,19.70
2011,07,11,13,06,19.60
2011,07,11,13,07,19.50
2011,07,11,13,08,19.40
2011,07,11,13,09,19.40
2011,07,11,13,10,19.30
2011,07,11,13,11,19.30
2011,07,11,13,12,19.30
2011,07,11,13,13,19.30
2011,07,11,13,14,19.40
2011,07,11,13,15,19.40
2011,07,11,13,16,19.50
2011,07,11,13,17,19.50
2011,07,11,13,18,19.50
2011,07,11,13,19,19.60
2011,07,11,13,20,19.70
2011,07,11,13,21,19.80
2011,07,11,13,22,19.90
2011,07,11,13,23,20.00
2011,07,11,13,24,20.10
2011,07,11,13,25,20.10
2011,07,11,13,26,20.10
2011,07,11,13,27,20.10
2011,07,11,13,28,20.10
2011,07,11,13,29,20.10
2011,07,11,13,30,20.10
2011,07,11,13,31,20.20
2011,07,11,13,32,20.20
2011,07,11,13,33,20.30
2011,07,11,13,34,20.40
2011,07,11,13,35,20.50
2011,07,11,13,36,20.60
2011,07,11,13,37,20.60
2011,07,11,13,38,20.70
2011,07,11,13,39,20.70
2011,07,11,13,40,20.80
2011,07,11,13,41,20.80
2011,07,11,13,42,20.90
2011,07,11,13,43,21.00
2011,07,11,13,44,21.10
2011,07,11,13,45,21.10
2011,07,11,13,46,21.20
2011,07,11,13,47,21.20
2011,07,11,13,48,21.30
2011,07,11,13,49,21.30
2011,07,11,13,50,21.40
2011,07,11,13,51,21.40
2011,07,11,13,52,21.50
2011,07,11,13,53,21.50
2011,07,11,13,54,21.50
2011,07,11,13,55,21.50
2011,07,11,13,56,21.50
2011,07,11,13,57,21.40
2011,07,11,13,58,21.40
2011,07,11,13,59,21.40
2011,07,11,14,00,21.40
2011,07,11,14,01,21.40
2011,07,11,14,02,21.50
2011,07,11,14,03,21.50
2011,07,11,14,04,21.50
2011,07,11,14,05,21.40
2011,07,11,14,06,21.40
2011,07,11,14,07,21.40
2011,07,11,14,08,21.40
2011,07,11,14,09,21.50
2011,07,11,14,10,21.50
2011,07,11,14,11,21.60
2011,07,11,14,12,21.60
2011,07,11,14,13,21.70
2011,07,11,14,14,21.80
2011,07,11,14,15,21.80
2011,07,11,14,16,21.80
2011,07,11,14,17,21.80
2011,07,11,14,18,21.80
2011,07,11,14,19,21.80
2011,07,11,14,20,21.80
2011,07,11,14,21,21.80
2011,07,11,14,22,21.80
2011,07,11,14,23,21.80
2011,07,11,14,24,21.90
2011,07,11,14,25,22.00
2011,07,11,14,26,22.10
2011,07,11,14,27,22.20
2011,07,11,14,28,22.20
2011,07,11,14,29,22.20
2011,07,11,14,30,22.20
2011,07,11,14,31,22.10
2011,07,11,14,32,22.20
2011,07,11,14,33,22.20
2011,07,11,14,34,22.20
2011,07,11,14,35,22.20
2011,07,11,14,36,22.20
2011,07,11,14,37,22.20
2011,07,11,14,38,22.30
2011,07,11,14,39,22.30
2011,07,11,14,40,22.40
2011,07,11,14,41,22.40
2011,07,11,14,42,22.40
2011,07,11,14,43,22.40
2011,07,11,14,44,22.40
2011,07,11,14,45,22.30
2011,07,11,14,46,22.20
2011,07,11,14,47,22.10
2011,07,11,14,48,22.00
2011,07,11,14,49,21.90
2011,07,11,14,50,21.90
2011,07,11,14,51,21.90
2011,07,11,14,52,21.90
2011,07,11,14,53,22.00
2011,07,11,14,54,21.90
2011,07,11,14,55,21.90
2011,07,11,14,56,21.80
2011,07,11,14,57,21.80
2011,07,11,14,58,21.80
2011,07,11,14,59,21.80
2011,07,11,15,00,21.70
2011,07,11,15,01,21.60
2011,07,11,15,02,21.50
2011,07,11,15,03,21.40
2011,07,11,15,04,21.30
2011,07,11,15,05,21.20
2011,07,11,15,06,21.10
2011,07,11,15,07,21.00
2011,07,11,15,08,21.00
2011,07,11,15,09,21.00
2011,07,11,15,10,21.00
2011,07,11,15,11,21.00
2011,07,11,15,12,21.00
2011,07,11,15,13,21.00
2011,07,11,15,14,21.00
2011,07,11,15,15,20.90
2011,07,11,15,16,20.90
2011,07,11,15,17,20.70
2011,07,11,15,18,20.40
2011,07,11,15,19,20.10
2011,07,11,15,20,19.90
2011,07,11,15,21,19.70
2011,07,11,15,22,19.60
2011,07,11,15,23,19.50
2011,07,11,15,24,19.50
2011,07,11,15,25,19.40
2011,07,11,15,26,19.40
2011,07,11,15,27,19.40
2011,07,11,15,28,19.30
2011,07,11,15,29,19.30
2011,07,11,15,30,19.40
2011,07,11,15,31,19.40
2011,07,11,15,32,19.40
2011,07,11,15,33,19.50
2011,07,11,15,34,19.50
2011,07,11,15,35,19.60
2011,07,11,15,36,19.70
2011,07,11,15,37,19.80
2011,07,11,15,38,19.90
2011,07,11,15,39,20.10
2011,07,11,15,40,20.20
2011,07,11,15,41,20.30
2011,07,11,15,42,20.30
2011,07,11,15,43,20.40
2011,07,11,15,44,20.40
2011,07,11,15,45,20.50
2011,07,11,15,46,20.40
2011,07,11,15,47,20.40
2011,07,11,15,48,20.40
2011,07,11,15,49,20.40
2011,07,11,15,50,20.40
2011,07,11,15,51,20.40
2011,07,11,15,52,20.40
2011,07,11,15,53,20.40
2011,07,11,15,54,20.40
2011,07,11,15,55,20.40
2011,07,11,15,56,20.40
2011,07,11,15,57,20.40
2011,07,11,15,58,20.50
2011,07,11,15,59,20.50
2011,07,11,16,00,20.40
2011,07,11,16,01,20.50
2011,07,11,16,02,20.50
2011,07,11,16,03,20.50
2011,07,11,16,04,20.50
2011,07,11,16,05,20.60
2011,07,11,16,06,20.70
2011,07,11,16,07,20.70
2011,07,11,16,08,20.70
2011,07,11,16,09,20.80
2011,07,11,16,10,20.90
2011,07,11,16,11,21.00
2011,07,11,16,12,21.10
2011,07,11,16,13,21.20
2011,07,11,16,14,21.20
2011,07,11,16,15,21.20
2011,07,11,16,16,21.20
2011,07,11,16,17,21.20
2011,07,11,16,18,21.30
2011,07,11,16,19,21.40
2011,07,11,16,20,21.50
2011,07,11,16,21,21.50
2011,07,11,16,22,21.60
2011,07,11,16,23,21.60
2011,07,11,16,24,21.70
2011,07,11,16,25,21.70
2011,07,11,16,26,21.70
2011,07,11,16,27,21.70
2011,07,11,16,28,21.60
2011,07,11,16,29,21.60
2011,07,11,16,30,21.60
2011,07,11,16,31,21.60
2011,07,11,16,32,21.60
2011,07,11,16,33,21.70
2011,07,11,16,34,21.60
2011,07,11,16,35,21.60
2011,07,11,16,36,21.60
2011,07,11,16,37,21.60
2011,07,11,16,38,21.60
2011,07,11,16,39,21.60
2011,07,11,16,40,21.60
2011,07,11,16,41,21.60
2011,07,11,16,42,21.60
2011,07,11,16,43,21.60
2011,07,11,16,44,21.60
2011,07,11,16,45,21.60
2011,07,11,16,46,21.60
2011,07,11,16,47,21.60
2011,07,11,16,48,21.60
2011,07,11,16,49,21.60
2011,07,11,16,50,21.70
2011,07,11,16,51,21.70
2011,07,11,16,52,21.70
2011,07,11,16,53,21.70
2011,07,11,16,54,21.70
2011,07,11,16,55,21.70
2011,07,11,16,56,21.70
2011,07,11,16,57,21.80
2011,07,11,16,58,21.80
2011,07,11,16,59,21.80
2011,07,11,17,00,21.80
2011,07,11,17,01,21.80
2011,07,11,17,02,21.80
2011,07,11,17,03,21.80
2011,07,11,17,04,21.70
2011,07,11,17,05,21.70
2011,07,11,17,06,21.60
2011,07,11,17,07,21.60
2011,07,11,17,08,21.60
2011,07,11,17,09,21.60
2011,07,11,17,10,21.60
2011,07,11,17,11,21.50
2011,07,11,17,12,21.50
2011,07,11,17,13,21.40
2011,07,11,17,14,21.40
2011,07,11,17,15,21.40
2011,07,11,17,16,21.30
2011,07,11,17,17,21.30
2011,07,11,17,18,21.30
2011,07,11,17,19,21.20
2011,07,11,17,20,21.20
2011,07,11,17,21,21.10
2011,07,11,17,22,21.10